Torna al catalogo

ATLAS 5 CENTAUR R/B

AttivoMEO
NORAD 53962·ROCKET BODY·🇺🇸 United States

Lanciato Oct 4, 2022 da Cape Canaveral Space Force Station

Loading…

Prossimi Passaggi (prossime 24 ore)

TLE

AggiornatoSource: Space-Track

Epoca: Sep 14, 2026, 12:43 UTC

1 53962U 22123C   26257.53003308 -.00000192  00000-0  00000-0 0  9992
2 53962   4.5878  96.9234 0307074 298.9227  58.3099  1.07591322 15518

Traccia ATLAS 5 CENTAUR R/B in tempo reale con AllMySat

Download on the App Store